Location: Unspecified
(48.8656°N, 0.0000°E)
Time: 20:29:22
(UTC+00:00)

Transit 2A Rocket - Pass Details

Date: 20 June 2019
Orbit: 588 x 915 km, 66.7° (Epoch: 18 July)

Event Time Altitude Azimuth Distance (km) Brightness Sun altitude
Rises 20:34:57 0° 313° (NW) 3,280 11.6 -4.3°
Reaches altitude 10° 20:38:15 10° 294° (WNW) 2,276 8.9 -4.7°
Maximum altitude 20:41:25 17° 255° (WSW) 1,794 7.4 -5.0°
Drops below altitude 10° 20:44:26 10° 217° (SW) 2,132 7.2 -5.4°
Sets 20:47:23 0° 196° (SSW) 2,979 7.8 -5.7°
